TimeEDT,TemperatureF,Dew PointF,Humidity,Sea Level PressureIn,VisibilityMPH,Wind Direction,Wind SpeedMPH,Gust SpeedMPH,PrecipitationIn,Events,Conditions,WindDirDegrees,DateUTC
12:53 AM,72.0,68.0,87,29.91,10.0,Calm,Calm,-,N/A,,Overcast,0,2012-09-04 04:53:00
1:53 AM,72.0,68.0,87,29.90,10.0,Calm,Calm,-,N/A,,Overcast,0,2012-09-04 05:53:00
2:53 AM,71.1,69.1,93,29.89,10.0,Calm,Calm,-,N/A,,Overcast,0,2012-09-04 06:53:00
3:28 AM,71.6,68.0,88,29.93,10.0,Calm,Calm,-,N/A,,Overcast,0,2012-09-04 07:28:00
3:53 AM,71.1,69.1,93,29.89,10.0,Calm,Calm,-,N/A,,Overcast,0,2012-09-04 07:53:00
4:53 AM,71.1,68.0,90,29.89,10.0,Calm,Calm,-,N/A,,Overcast,0,2012-09-04 08:53:00
5:02 AM,71.6,68.0,88,29.93,10.0,Calm,Calm,-,N/A,,Overcast,0,2012-09-04 09:02:00
5:53 AM,71.1,68.0,90,29.90,10.0,Calm,Calm,-,N/A,,Overcast,0,2012-09-04 09:53:00
6:53 AM,71.1,68.0,90,29.91,10.0,Calm,Calm,-,N/A,,Overcast,0,2012-09-04 10:53:00
7:53 AM,71.1,69.1,93,29.92,10.0,Calm,Calm,-,0.00,,Overcast,0,2012-09-04 11:53:00
8:53 AM,72.0,69.1,91,29.92,10.0,Calm,Calm,-,N/A,,Overcast,0,2012-09-04 12:53:00
9:53 AM,75.9,70.0,82,29.91,10.0,Calm,Calm,-,N/A,,Overcast,0,2012-09-04 13:53:00
10:16 AM,75.2,69.8,83,29.96,10.0,Calm,Calm,-,N/A,,Overcast,0,2012-09-04 14:16:00
10:51 AM,75.2,69.8,83,29.96,10.0,Variable,3.5,-,N/A,,Overcast,0,2012-09-04 14:51:00
10:53 AM,75.9,69.1,79,29.92,10.0,Calm,Calm,-,N/A,,Overcast,0,2012-09-04 14:53:00
11:38 AM,78.8,69.8,74,29.96,10.0,Calm,Calm,-,N/A,,Overcast,0,2012-09-04 15:38:00
11:53 AM,77.0,70.0,79,29.92,10.0,NW,3.5,-,N/A,,Overcast,310,2012-09-04 15:53:00
12:07 PM,78.8,69.8,74,29.96,10.0,Calm,Calm,-,N/A,,Overcast,0,2012-09-04 16:07:00
12:53 PM,78.1,70.0,76,29.91,10.0,Calm,Calm,-,0.00,,Overcast,0,2012-09-04 16:53:00
1:53 PM,80.1,70.0,71,29.89,10.0,Calm,Calm,-,N/A,,Mostly Cloudy,0,2012-09-04 17:53:00
2:03 PM,80.6,71.6,74,29.94,10.0,Calm,Calm,-,0.00,Rain,Light Rain,0,2012-09-04 18:03:00
2:17 PM,80.6,69.8,70,29.94,10.0,Calm,Calm,-,0.00,,Overcast,0,2012-09-04 18:17:00
2:33 PM,78.8,71.6,78,29.94,10.0,SSE,3.5,-,0.00,,Overcast,160,2012-09-04 18:33:00
2:53 PM,78.1,72.0,81,29.89,10.0,Calm,Calm,-,0.00,,Overcast,0,2012-09-04 18:53:00
3:00 PM,78.8,71.6,78,29.93,10.0,Calm,Calm,-,N/A,,Overcast,0,2012-09-04 19:00:00
3:53 PM,78.8,71.6,78,29.91,10.0,Calm,Calm,-,N/A,,Mostly Cloudy,0,2012-09-04 19:53:00
4:18 PM,80.6,73.4,79,29.90,10.0,Calm,Calm,-,N/A,,Overcast,0,2012-09-04 20:18:00
4:53 PM,82.0,72.0,71,29.85,10.0,Calm,Calm,-,N/A,,Mostly Cloudy,0,2012-09-04 20:53:00
5:53 PM,81.0,71.1,72,29.85,10.0,Calm,Calm,-,N/A,,Mostly Cloudy,0,2012-09-04 21:53:00
6:53 PM,80.1,71.1,74,29.86,10.0,Calm,Calm,-,N/A,,Mostly Cloudy,0,2012-09-04 22:53:00
7:53 PM,79.0,70.0,74,29.86,10.0,Calm,Calm,-,N/A,,Partly Cloudy,0,2012-09-04 23:53:00
8:53 PM,77.0,68.0,74,29.87,10.0,Calm,Calm,-,N/A,,Clear,0,2012-09-05 00:53:00
9:53 PM,77.0,69.1,76,29.88,10.0,Calm,Calm,-,N/A,,Clear,0,2012-09-05 01:53:00
10:53 PM,75.2,71.6,89,29.92,10.0,Calm,Calm,-,N/A,,Overcast,0,2012-09-05 02:53:00
11:53 PM,75.0,72.0,90,29.88,10.0,Calm,Calm,-,N/A,,Mostly Cloudy,0,2012-09-05 03:53:00